DW0723 Weather Reports


Display with metric or nautical units.
time (UTC)temp
F
wind
direction
speed
MPH
gust
MPH
rain 1hr
in
rain 24hr
in
rain mn
in
humidity
%
barometer
mb
20260906135735 64 37 4.0 6.0 0.00 0.00 0.00 91 1019.0
20260906132735 63 28 4.0 5.0 0.00 0.00 0.00 92 1019.4
20260906125734 62 26 4.0 5.0 0.00 0.00 0.00 91 1019.0
20260906122734 61 15 0.0 3.0 0.00 0.00 0.00 91 1018.6
20260906115733 61 5 3.0 4.0 0.00 0.00 0.00 91 1018.6
20260906112733 61 42 0.0 3.0 0.00 0.00 0.00 91 1018.2
20260906102732 62 18 0.0 4.0 0.00 0.00 0.00 91 1017.8
20260906082731 62 13 0.0 0.0 0.00 0.00 0.00 90 1017.5
20260906075800 62 13 0.0 0.0 0.00 0.00 0.00 90 1017.4
20260906072730 62 13 0.0 0.0 0.00 0.00 0.00 90 1017.6
20260906062729 62 13 0.0 0.0 0.00 0.00 0.00 89 1017.2
20260906055758 63 13 0.0 0.0 0.00 0.00 0.00 89 1017.0
20260906052758 64 13 0.0 0.0 0.00 0.00 0.00 88 1016.9
20260906045758 65 13 0.0 0.0 0.00 0.00 0.00 88 1017.0
20260906042756 65 13 0.0 0.0 0.00 0.00 0.00 88 1016.6
20260906035757 66 13 0.0 0.0 0.00 0.00 0.00 88 1016.2
20260906025756 68 13 0.0 0.0 0.00 0.00 0.00 88 1016.2
20260906022756 69 13 0.0 3.0 0.00 0.00 0.00 88 1015.9
20260906015756 69 13 0.0 1.0 0.00 0.00 0.00 86 1015.8
20260906012755 70 13 0.0 0.0 0.00 0.00 0.00 84 1015.4
20260906005755 71 13 0.0 0.0 0.00 0.01 0.00 83 1015.3
20260906002754 72 13 0.0 0.0 0.00 0.01 0.00 82 1015.3
20260905235754 73 13 0.0 3.0 0.00 0.01 0.00 81 1015.5
20260905232754 73 11 0.0 4.0 0.00 0.01 0.00 81 1015.5
20260905225755 72 37 1.0 5.0 0.00 0.01 0.00 83 1015.4
20260905222753 72 350 0.0 4.0 0.00 0.01 0.00 82 1015.3
20260905215753 72 327 0.0 7.0 0.00 0.01 0.00 83 1015.3
20260905212752 71 10 1.0 6.0 0.00 0.01 0.00 85 1015.3
20260905205752 71 9 3.0 7.0 0.00 0.01 0.00 86 1015.8
20260905195751 71 28 4.0 8.0 0.00 0.01 0.00 87 1015.9
20260905192750 70 48 0.0 6.0 0.00 0.01 0.00 87 1015.9
20260905185750 70 21 3.0 7.0 0.00 0.01 0.00 87 1015.7
20260905182750 70 36 0.0 9.0 0.00 0.01 0.00 87 1015.9
20260905172749 70 35 1.0 11.0 0.00 0.01 0.00 88 1016.0
20260905165749 70 46 2.0 11.0 0.00 0.01 0.00 88 1015.9
20260905155748 69 35 4.0 8.0 0.00 0.01 0.00 92 1015.8
20260905152748 68 17 3.0 10.0 0.00 0.01 0.00 92 1015.7
20260905142747 67 53 4.0 10.0 0.00 0.01 0.00 93 1015.3